TimeEDT,TemperatureF,Dew PointF,Humidity,Sea Level PressureIn,VisibilityMPH,Wind Direction,Wind SpeedMPH,Gust SpeedMPH,PrecipitationIn,Events,Conditions,WindDirDegrees,DateUTC
12:15 AM,32.0,17.6,55,30.38,10.0,North,3.5,-,N/A,,Clear,350,2013-04-04 04:15:00
12:35 AM,32.0,15.8,51,30.38,10.0,Calm,Calm,-,N/A,,Clear,0,2013-04-04 04:35:00
12:55 AM,28.4,17.6,64,30.38,10.0,Calm,Calm,-,N/A,,Clear,0,2013-04-04 04:55:00
1:15 AM,26.6,17.6,69,30.38,10.0,Calm,Calm,-,N/A,,Scattered Clouds,0,2013-04-04 05:15:00
1:35 AM,-9999,-9999,N/A,30.37,10.0,Calm,Calm,-,N/A,,Clear,0,2013-04-04 05:35:00
1:55 AM,-9999,-9999,N/A,30.37,10.0,Calm,Calm,-,N/A,,Scattered Clouds,0,2013-04-04 05:55:00
2:15 AM,-9999,-9999,N/A,30.37,10.0,Calm,Calm,-,N/A,,Scattered Clouds,0,2013-04-04 06:15:00
2:35 AM,-9999,-9999,N/A,30.37,10.0,Calm,Calm,-,N/A,,Clear,0,2013-04-04 06:35:00
2:55 AM,24.8,17.6,74,30.37,10.0,Calm,Calm,-,N/A,,Clear,0,2013-04-04 06:55:00
3:15 AM,-9999,-9999,N/A,30.37,10.0,Calm,Calm,-,N/A,,Clear,0,2013-04-04 07:15:00
3:55 AM,-9999,-9999,N/A,30.38,10.0,Calm,Calm,-,N/A,,Clear,0,2013-04-04 07:55:00
4:15 AM,-9999,-9999,N/A,30.38,10.0,Calm,Calm,-,N/A,,Clear,0,2013-04-04 08:15:00
4:35 AM,-9999,-9999,N/A,30.38,10.0,Calm,Calm,-,N/A,,Clear,0,2013-04-04 08:35:00
4:55 AM,-9999,-9999,N/A,30.37,10.0,Calm,Calm,-,N/A,,Clear,0,2013-04-04 08:55:00
5:15 AM,-9999,-9999,N/A,30.38,10.0,Calm,Calm,-,N/A,,Clear,0,2013-04-04 09:15:00
5:35 AM,-9999,-9999,N/A,30.38,10.0,Calm,Calm,-,N/A,,Clear,0,2013-04-04 09:35:00
5:55 AM,-9999,-9999,N/A,30.38,10.0,Calm,Calm,-,N/A,,Clear,0,2013-04-04 09:55:00
6:15 AM,-9999,-9999,N/A,30.38,10.0,NE,3.5,-,N/A,,Clear,40,2013-04-04 10:15:00
6:35 AM,-9999,-9999,N/A,30.38,10.0,Calm,Calm,-,N/A,,Clear,0,2013-04-04 10:35:00
6:55 AM,-9999,-9999,N/A,30.36,10.0,Calm,Calm,-,N/A,,Clear,0,2013-04-04 10:55:00
7:15 AM,-9999,-9999,N/A,30.37,10.0,Calm,Calm,-,N/A,,Clear,0,2013-04-04 11:15:00
7:35 AM,-9999,-9999,N/A,30.37,10.0,Calm,Calm,-,N/A,,Clear,0,2013-04-04 11:35:00
7:55 AM,-9999,-9999,N/A,30.38,10.0,Calm,Calm,-,N/A,,Clear,0,2013-04-04 11:55:00
8:15 AM,26.6,21.2,80,30.38,10.0,Calm,Calm,-,N/A,,Clear,0,2013-04-04 12:15:00
8:35 AM,28.4,19.4,69,30.37,10.0,Calm,Calm,-,N/A,,Clear,0,2013-04-04 12:35:00
8:55 AM,30.2,19.4,64,30.38,10.0,Calm,Calm,-,N/A,,Clear,0,2013-04-04 12:55:00
9:15 AM,32.0,19.4,60,30.38,10.0,Calm,Calm,-,N/A,,Scattered Clouds,0,2013-04-04 13:15:00
9:35 AM,32.0,19.4,60,30.37,10.0,Calm,Calm,-,N/A,,Clear,0,2013-04-04 13:35:00
9:55 AM,32.0,17.6,55,30.37,10.0,Calm,Calm,-,N/A,,Clear,0,2013-04-04 13:55:00
10:15 AM,33.8,17.6,52,30.37,10.0,SE,3.5,-,N/A,,Clear,130,2013-04-04 14:15:00
10:35 AM,33.8,17.6,52,30.36,10.0,Calm,Calm,-,N/A,,Clear,0,2013-04-04 14:35:00
10:55 AM,35.6,17.6,48,30.35,10.0,Calm,Calm,-,N/A,,Clear,0,2013-04-04 14:55:00
11:15 AM,37.4,17.6,45,30.35,10.0,Calm,Calm,-,N/A,,Clear,0,2013-04-04 15:15:00
11:35 AM,39.2,17.6,42,30.34,10.0,South,9.2,-,N/A,,Clear,180,2013-04-04 15:35:00
11:55 AM,41.0,17.6,39,30.33,10.0,South,5.8,-,N/A,,Clear,170,2013-04-04 15:55:00
12:35 PM,42.8,17.6,36,30.30,10.0,SSE,8.1,-,N/A,,Clear,150,2013-04-04 16:35:00
12:55 PM,42.8,17.6,36,30.28,10.0,South,5.8,-,N/A,,Clear,180,2013-04-04 16:55:00
1:15 PM,42.8,17.6,36,30.27,10.0,SE,9.2,-,N/A,,Clear,130,2013-04-04 17:15:00
1:35 PM,44.6,17.6,34,30.26,10.0,SE,6.9,-,N/A,,Clear,130,2013-04-04 17:35:00
1:55 PM,46.4,17.6,32,30.24,10.0,SE,6.9,-,N/A,,Clear,140,2013-04-04 17:55:00
2:15 PM,46.4,17.6,32,30.23,10.0,South,6.9,-,N/A,,Clear,170,2013-04-04 18:15:00
2:35 PM,46.4,17.6,32,30.22,10.0,SE,8.1,-,N/A,,Clear,130,2013-04-04 18:35:00
2:55 PM,46.4,17.6,32,30.21,10.0,SE,9.2,-,N/A,,Clear,140,2013-04-04 18:55:00
3:15 PM,46.4,17.6,32,30.20,10.0,SE,6.9,-,N/A,,Clear,130,2013-04-04 19:15:00
3:55 PM,46.4,19.4,34,30.18,10.0,SE,11.5,16.1,N/A,,Clear,130,2013-04-04 19:55:00
4:15 PM,46.4,19.4,34,30.18,10.0,SSE,12.7,-,N/A,,Clear,160,2013-04-04 20:15:00
4:35 PM,44.6,17.6,34,30.17,10.0,SSE,13.8,19.6,N/A,,Clear,150,2013-04-04 20:35:00
4:55 PM,44.6,17.6,34,30.17,10.0,SSE,10.4,-,N/A,,Clear,150,2013-04-04 20:55:00
5:15 PM,44.6,17.6,34,30.16,10.0,SSE,15.0,20.7,N/A,,Clear,150,2013-04-04 21:15:00
5:35 PM,44.6,19.4,37,30.15,10.0,SSE,10.4,-,N/A,,Scattered Clouds,150,2013-04-04 21:35:00
5:55 PM,42.8,19.4,39,30.14,10.0,SSE,10.4,17.3,N/A,,Scattered Clouds,160,2013-04-04 21:55:00
6:15 PM,42.8,19.4,39,30.14,10.0,SSE,10.4,-,N/A,,Scattered Clouds,160,2013-04-04 22:15:00
6:35 PM,42.8,19.4,39,30.14,10.0,SSE,8.1,-,N/A,,Scattered Clouds,150,2013-04-04 22:35:00
6:55 PM,42.8,19.4,39,30.13,10.0,SSE,9.2,-,N/A,,Clear,160,2013-04-04 22:55:00
7:15 PM,42.8,19.4,39,30.13,10.0,SSE,8.1,-,N/A,,Clear,150,2013-04-04 23:15:00
7:55 PM,42.8,19.4,39,30.12,10.0,South,8.1,-,N/A,,Clear,170,2013-04-04 23:55:00
8:15 PM,42.8,19.4,39,30.11,10.0,SSE,8.1,-,N/A,,Mostly Cloudy,160,2013-04-05 00:15:00
8:35 PM,42.8,19.4,39,30.10,10.0,SSE,6.9,-,N/A,,Mostly Cloudy,160,2013-04-05 00:35:00
8:55 PM,42.8,19.4,39,30.10,10.0,SSE,6.9,-,N/A,,Mostly Cloudy,160,2013-04-05 00:55:00
9:15 PM,42.8,19.4,39,30.10,10.0,South,5.8,-,N/A,,Mostly Cloudy,170,2013-04-05 01:15:00
9:35 PM,42.8,19.4,39,30.09,10.0,South,8.1,-,N/A,,Overcast,170,2013-04-05 01:35:00
9:55 PM,41.0,21.2,45,30.09,10.0,South,6.9,-,N/A,,Overcast,170,2013-04-05 01:55:00
10:15 PM,41.0,21.2,45,30.08,10.0,South,6.9,-,N/A,,Overcast,170,2013-04-05 02:15:00
10:35 PM,41.0,23.0,49,30.08,10.0,South,6.9,-,N/A,,Overcast,190,2013-04-05 02:35:00
10:55 PM,41.0,26.6,57,30.08,10.0,SSW,8.1,-,N/A,,Overcast,210,2013-04-05 02:55:00
11:15 PM,39.2,30.2,70,30.07,10.0,SSW,5.8,-,N/A,,Light Drizzle,210,2013-04-05 03:15:00
11:35 PM,37.4,32.0,81,30.06,10.0,SSW,4.6,-,N/A,,Drizzle,200,2013-04-05 03:35:00
11:55 PM,35.6,32.0,87,30.05,10.0,SSW,4.6,-,N/A,,Light Drizzle,200,2013-04-05 03:55:00